Location: F?ge?el
(45.8833°N, 22.5833°E)
Time: 05:28:12
(UTC+00:00)

Cosmos 2278 Rocket - Pass Details

Date: 17 November 2025
Orbit: 841 x 843 km, 71.0° (Epoch: 04 December)

Event Time Altitude Azimuth Distance (km) Brightness Sun altitude
Rises 16:06:55 0° 197° (SSW) 3,384 5.8 -12.3°
Reaches altitude 10° 16:09:21 10° 196° (SSW) 2,453 5.0 -12.7°
Maximum altitude 16:14:57 72° 113° (ESE) 886 2.1 -13.7°
Drops below altitude 10° 16:20:35 10° 30° (NNE) 2,469 4.2 -14.6°
Enters shadow 16:20:54 - 30° (NNE) 2,589 4.3 -14.7°
